Flag for Colombia Weather past 2 weeks in Barranquilla, Colombia

Now
86 °F

Sunny.


Feels Like: 97 °F
Forecast: 79 / 87 °F
Wind: 5 mph from Southeast

Location: Barranquilla / Ernestocortissoz

Current Time: Dec 19, 2014 at 10:55:38 AM

Latest Report: Dec 19, 2014 at 10:00 AM


Visibility: 10 mi

Pressure: 29.89 "Hg

Humidity: 75%

Dew point: 77 °F

Location of BarranquillaLocation

Historic Weather in Barranquilla — Graph

°F

Barranquilla temperature yesterday

Maximum temperature yesterday: 90 °F (at 11:00 AM)
Minimum temperature yesterday: 77 °F (at 4:00 AM)
Average temperature yesterday: 83 °F

Past Weeks' High & Low Weather Summary

 TemperatureHumidityPressure
High93 °F (Dec 5, 1:00 PM)100% (Dec 4, 9:00 AM)29.99 "Hg (Dec 4, 9:00 AM)
Low73 °F (Dec 15, 5:00 AM)63% (Dec 8, 1:00 PM)29.73 "Hg (Dec 9, 4:00 PM)
Average82 °F87%29.85 "Hg
* Reported Dec 4 9:00 AM — Dec 19 9:00 AM, Barranquilla, Weather by CustomWeather, © 2014

Note: Actual official high and low records may vary slightly from our data, if they occured in-between our weather recording intervals... More about our weather records

Advertising

Barranquilla weather history for previous 24 hours

 ConditionsComfort  
Time TempWeatherWind HumidityBarometerVisibility
9:00 AM
Dec 19
86 °FSunny.3 mph75%29.88 "Hg10 mi
8:00 AM79 °FSunny.3 mph100%29.87 "Hg10 mi
7:00 AM79 °FSunny.6 mph89%29.84 "Hg10 mi
6:00 AM79 °FPassing clouds.6 mph89%29.82 "HgN/A
5:00 AM79 °FClear.7 mph89%29.80 "Hg10 mi
4:00 AM79 °FClear.12 mph89%29.78 "Hg10 mi
3:00 AM79 °FClear.3 mph89%29.78 "Hg10 mi
2:00 AM81 °FClear.7 mph84%29.80 "Hg10 mi
1:00 AM81 °FClear.7 mph89%29.82 "Hg10 mi
12:00 AM81 °FClear.15 mph89%29.84 "Hg10 mi
11:00 PM
Dec 18
81 °FClear.6 mph84%29.85 "Hg10 mi
10:00 PM82 °FClear.8 mph79%29.86 "Hg10 mi
9:00 PM82 °FClear.14 mph79%29.86 "Hg10 mi
8:00 PM82 °FClear.12 mph79%29.85 "Hg10 mi
7:00 PM82 °FClear.10 mph84%29.85 "Hg10 mi
6:00 PM82 °FPassing clouds.8 mph89%29.83 "HgN/A
5:00 PM84 °FPassing clouds.17 mph84%29.82 "HgN/A
4:00 PM86 °FPassing clouds.12 mph79%29.81 "HgN/A
3:00 PM84 °FPartly sunny.14 mph84%29.82 "HgN/A
2:00 PM88 °FScattered clouds.7 mph75%29.83 "HgN/A
1:00 PM88 °FScattered clouds.7 mph75%29.85 "HgN/A
12:00 PM90 °FScattered clouds.7 mph75%29.87 "HgN/A
11:00 AM90 °FScattered clouds.5 mph67%29.90 "HgN/A
10:00 AM88 °FPassing clouds.7 mph70%29.91 "HgN/A
Weather by CustomWeather, © 2014

See weather overviewHow to use our weather pages